Temperature
28 27 27 26 30 31 30 31 31 31 30 30 30 29 28 27 26 23 22 22 20 20 20 20 19 19 19 19 19 19 18 18 18 18 18 18 18 18 18 18 18 18 18 18 18 18 18 18 18
28 27 27 30 31 30 30 31 31 31 30 30 29 28 27 26 25 23 22 21 21 20 19 19 19 19 19 19 19 18 18 18 18 18 18 18 18 18 18 18 18 18 18 18 18 18 18 18 18
28 28 30 33 32 31 30 31 31 31 31 30 29 28 27 26 25 23 22 21 21 20 20 20 19 19 19 19 18 18 18 18 18 18 18 18 18 18 18 18 18 18 18 18 18 18 18 18 18
28 31 33 33 32 32 32 32 32 32 31 30 29 27 26 25 24 23 22 22 21 20 20 20 19 19 19 19 18 18 18 18 18 18 18 18 18 18 18 18 18 18 18 18 18 18 18 18 18
30 32 33 33 32 33 33 33 32 32 31 30 28 27 25 25 24 23 23 22 21 20 20 20 19 19 19 19 18 18 18 18 18 18 18 18 18 18 18 18 18 18 18 18 18 18 18 18 18
33 34 33 32 32 33 34 33 32 32 31 30 28 26 25 25 24 24 23 22 21 20 20 20 20 19 19 19 18 18 18 18 18 18 18 18 18 18 18 18 18 18 18 18 18 18 18 18 18
34 34 33 33 33 33 33 33 32 32 31 30 29 27 25 25 24 24 23 22 22 21 20 20 20 19 19 19 19 18 18 18 18 18 18 18 18 18 18 18 18 18 18 18 18 18 18 18 18
35 35 33 33 33 33 33 33 32 31 31 30 30 28 26 25 24 24 23 22 22 21 20 20 19 19 19 19 19 19 18 18 18 18 18 18 18 18 18 18 18 18 18 18 18 18 18 18 18
35 34 33 34 33 33 33 33 32 31 30 29 29 28 26 25 24 24 23 22 22 21 21 20 19 19 18 18 19 19 19 18 18 18 18 18 18 18 18 18 18 18 18 18 18 18 18 18 18
35 33 34 35 35 34 34 33 32 31 30 28 27 26 25 25 24 24 23 22 22 21 21 20 20 19 19 18 19 19 18 18 18 18 18 18 18 18 18 18 18 18 18 18 18 18 18 18 18
36 35 35 36 35 34 34 33 32 32 30 29 27 26 25 25 25 24 23 23 22 21 21 20 20 19 19 19 19 18 18 18 18 18 18 18 18 18 18 18 18 18 18 18 18 18 18 17 18
36 36 36 35 34 34 33 33 32 32 31 29 27 26 26 25 25 25 24 23 22 21 21 20 20 19 19 19 19 19 19 18 18 18 18 18 18 18 18 18 18 18 18 18 18 18 17 18 18
36 36 36 35 34 34 33 33 32 31 30 29 28 27 26 26 26 25 24 23 22 21 21 20 20 20 19 19 19 19 19 19 18 18 18 18 18 18 18 18 18 18 18 18 18 18 18 18 18
36 36 36 35 34 33 31 31 31 31 30 29 28 27 27 26 26 25 24 23 22 21 21 20 20 20 20 19 19 19 19 19 18 18 18 18 18 18 18 18 18 18 18 18 18 18 18 18 18
36 36 36 36 34 32 31 29 31 31 31 30 29 28 27 27 26 25 24 23 22 21 21 20 20 20 20 19 19 19 19 19 19 18 18 18 18 18 18 18 18 18 18 18 18 18 18 18 18
36 35 34 35 35 33 32 29 31 31 31 30 29 28 28 27 26 25 24 23 22 21 21 21 20 20 20 19 19 19 19 19 19 18 18 18 18 18 18 18 18 18 18 18 18 18 18 18 18
35 34 33 34 35 34 33 31 32 32 31 31 30 29 28 27 26 25 24 23 22 21 21 21 20 20 20 19 19 19 19 19 19 18 18 18 18 18 18 18 18 18 18 18 18 18 18 18 18
33 34 34 34 35 35 33 33 33 33 32 31 30 29 28 27 26 25 24 23 22 21 21 21 20 20 20 19 19 19 19 19 19 18 18 18 18 18 18 18 18 18 18 18 18 18 18 18 18
34 34 34 35 36 35 34 33 34 33 33 32 31 30 28 27 26 25 24 23 22 21 21 21 20 20 19 19 19 19 19 19 19 18 18 18 18 18 18 18 18 18 18 18 18 18 18 18 18
34 34 34 35 36 35 33 33 33 33 33 32 31 30 29 27 26 25 24 23 22 21 21 21 20 20 20 19 19 19 19 19 19 19 18 18 18 18 18 18 18 18 18 18 18 18 18 18 18
34 34 34 34 35 35 33 32 32 31 32 32 32 31 29 28 27 25 24 23 22 21 21 21 20 20 20 20 19 19 19 19 19 19 19 18 18 18 18 18 18 18 18 18 18 17 17 18 18
33 35 35 34 34 33 33 31 30 30 31 31 31 31 30 29 27 25 24 23 23 22 21 21 20 20 20 19 19 19 19 19 19 19 18 18 18 18 18 18 18 18 18 18 18 17 17 17 17
34 35 35 34 33 33 32 31 30 30 30 31 31 30 30 29 27 26 24 23 23 22 21 21 20 20 20 19 19 19 19 19 18 18 18 18 18 18 18 18 18 18 18 18 18 17 17 17 17
35 34 34 34 33 31 32 32 30 31 31 32 32 31 30 29 27 26 25 24 23 22 21 21 20 20 20 19 19 19 19 19 18 18 18 18 18 18 18 18 18 18 18 18 18 18 17 17 17
34 32 31 31 31 31 33 33 31 32 33 33 32 31 30 29 27 26 25 24 23 22 21 21 20 20 20 19 19 19 19 19 19 18 18 18 18 18 18 18 18 18 18 18 18 17 18 17 17
33 33 31 30 30 31 31 32 33 34 33 33 32 31 30 29 27 26 25 24 23 22 21 21 20 20 20 20 19 19 19 19 19 18 18 18 18 18 18 18 18 18 18 17 17 17 17 17 17
33 33 34 32 31 30 30 31 33 34 33 33 32 31 30 29 28 26 25 24 23 22 21 21 20 20 19 19 19 19 19 19 19 19 18 18 18 18 18 18 18 18 17 17 17 17 17 17 17
34 33 33 32 30 30 30 30 31 31 32 33 32 31 30 29 28 26 25 24 23 22 22 21 20 20 19 19 19 19 19 19 19 19 19 18 18 18 18 18 18 17 17 17 17 17 17 17 17
33 32 32 32 31 30 29 29 31 31 31 32 31 30 29 29 28 27 26 25 24 23 22 21 20 20 19 19 19 19 19 18 18 18 18 18 18 18 18 18 17 17 17 17 17 17 17 16 16
33 33 32 31 30 30 30 30 32 33 33 32 31 30 29 28 28 27 25 25 24 23 22 21 20 20 20 19 19 19 19 19 18 18 18 18 18 18 18 17 17 17 17 17 17 17 16 16 16
Wind_Speed
9 11 10 6 2 9 18 18 18 17 16 16 17 16 19 17 13 13 14 19 20 18 17 15 14 14 14 14 14 14 14 14 14 14 14 14 14 14 15 16 16 16 17 17 17 17 17 17 16
10 13 10 5 5 13 16 16 16 15 14 15 18 20 21 19 19 16 16 18 19 18 17 16 14 14 14 13 13 13 13 13 13 13 13 13 13 14 14 15 16 16 16 16 16 16 16 16 15
11 14 7 3 13 15 16 15 14 14 13 16 19 19 17 15 17 15 16 18 18 18 18 17 15 14 13 13 12 12 13 13 12 12 12 13 13 13 14 14 15 15 15 15 15 15 15 14 13
8 5 1 10 18 17 15 13 13 13 14 15 16 13 16 16 17 18 18 18 19 18 19 17 15 14 13 12 12 12 12 12 12 12 12 12 13 13 13 14 14 14 14 14 14 14 14 13 11
9 3 5 14 18 16 14 14 14 15 16 18 19 18 18 18 18 18 16 17 18 19 19 17 15 14 13 12 12 12 12 12 11 11 11 12 12 12 13 13 13 13 13 13 13 13 12 10 9
4 1 6 13 16 15 14 14 14 15 14 17 19 18 15 16 15 15 16 15 17 19 19 17 15 14 13 12 12 11 11 11 11 11 11 12 12 12 12 12 12 12 12 12 12 11 11 9 7
4 3 9 14 14 14 13 13 13 13 12 13 17 17 14 14 13 15 15 15 15 17 17 16 15 14 13 13 12 11 11 11 10 10 11 12 12 11 11 12 11 11 11 11 11 10 9 8 6
3 4 9 12 13 14 13 14 14 13 11 8 11 13 15 15 14 15 14 14 13 13 15 14 15 14 14 13 11 11 11 10 10 10 11 12 12 11 12 12 11 11 10 10 10 9 8 7 5
5 4 8 12 12 12 12 13 12 13 12 12 13 18 19 18 16 15 14 13 11 11 11 11 12 12 12 13 13 11 11 10 9 9 10 11 10 11 10 12 11 10 9 9 9 9 8 7 6
3 4 9 11 12 11 11 11 10 11 12 13 15 18 19 17 16 14 14 13 11 11 10 8 9 9 10 10 12 10 9 9 6 6 8 7 6 9 10 13 11 10 9 9 9 9 8 7 7
4 6 9 11 12 11 10 10 9 11 11 15 18 19 18 16 14 14 13 13 12 11 9 9 8 7 7 7 8 7 7 8 5 5 5 6 6 9 11 10 10 10 10 8 9 9 7 7 5
3 6 7 9 10 9 8 10 11 11 12 17 19 19 16 15 13 13 13 13 12 11 10 9 9 6 5 5 5 7 6 6 6 5 4 5 3 4 6 6 8 9 7 6 7 6 5 4 3
2 4 5 7 7 9 7 7 10 12 15 17 19 18 16 14 12 12 12 12 12 10 9 9 9 6 4 3 2 4 4 5 7 7 5 4 3 2 4 3 4 5 6 6 3 3 3 2 2
2 0 3 6 7 9 8 3 4 12 15 16 16 15 15 13 13 13 12 12 11 10 10 9 9 7 5 3 1 1 3 5 6 6 6 3 3 4 3 2 1 2 3 4 3 3 2 2 2
5 4 3 5 6 8 8 2 2 10 14 15 15 14 14 13 13 13 12 11 11 10 10 9 9 9 6 5 4 3 3 4 3 5 6 4 3 5 3 2 1 1 3 3 2 1 2 2 2
10 7 5 4 7 9 6 4 6 11 13 14 14 13 12 11 13 13 13 11 11 11 10 9 9 10 7 5 3 2 2 4 3 5 5 4 4 4 3 2 2 3 3 3 2 2 1 1 1
11 8 7 6 7 6 5 7 9 10 12 12 12 13 13 11 12 12 13 11 11 11 10 9 6 9 8 6 4 2 2 2 3 4 5 5 5 5 3 2 3 4 2 2 3 2 1 2 1
9 6 7 5 7 4 3 7 11 11 11 12 12 12 14 13 11 12 12 12 11 10 10 9 7 7 7 6 3 2 3 3 3 3 4 6 5 5 4 3 4 4 2 2 2 1 2 2 2
10 9 5 2 4 2 1 4 7 10 10 11 12 12 13 13 13 13 12 12 12 10 10 9 8 7 6 5 5 4 4 4 4 4 6 7 6 6 4 2 2 2 2 3 3 2 3 3 3
8 8 7 3 2 2 3 4 3 6 9 10 11 12 13 13 13 13 12 12 12 11 10 9 8 8 7 5 4 4 4 3 4 3 5 7 6 5 5 4 3 2 2 2 3 3 2 3 2
10 10 8 6 3 5 5 5 3 4 4 7 10 12 13 14 14 14 13 12 12 12 11 9 9 8 8 6 4 4 3 2 2 3 4 4 5 5 4 3 3 2 3 3 4 4 4 4 3
11 10 9 8 8 7 7 5 4 6 7 9 8 9 11 12 14 15 14 12 12 12 11 9 9 8 7 6 5 5 4 4 3 3 4 4 4 4 4 4 3 2 2 3 4 4 4 4 4
11 9 9 9 10 9 9 6 4 8 8 9 9 10 11 12 13 14 14 12 11 11 11 10 8 7 7 6 6 5 4 3 2 2 3 4 4 4 3 4 3 3 3 3 3 2 3 3 3
10 9 9 10 10 12 11 8 4 5 8 9 11 11 11 12 12 12 12 11 10 10 9 10 9 7 7 7 6 5 4 3 2 2 3 3 3 3 3 3 2 3 3 3 2 2 3 3 3
12 10 8 9 9 10 8 7 4 7 7 8 9 11 12 12 12 12 12 11 10 10 10 10 9 8 8 7 6 6 5 4 3 3 3 3 2 3 3 3 3 3 3 3 2 3 3 3 4
13 14 12 9 8 5 6 5 4 9 9 9 10 11 12 13 13 13 12 11 10 11 10 10 10 8 8 7 6 5 5 4 3 3 2 2 2 2 3 2 3 3 3 3 2 3 3 3 4
15 15 16 13 13 10 6 5 4 9 10 10 11 12 12 12 13 13 13 12 11 10 10 10 9 8 7 7 6 5 5 4 3 3 2 2 2 2 2 2 2 2 2 3 2 3 3 2 3
17 14 11 11 10 10 8 9 5 8 7 10 11 12 12 12 13 12 12 12 11 10 9 9 9 8 6 7 6 6 6 5 4 3 3 1 1 0 0 1 2 2 3 3 2 2 3 3 3
15 16 12 10 9 10 8 5 2 9 8 8 9 10 11 12 13 13 12 12 11 11 11 10 9 8 7 7 6 5 5 5 4 3 2 1 0 0 1 1 2 2 2 2 2 2 2 2 2
15 16 15 11 9 9 9 4 5 6 7 9 10 10 10 10 11 12 12 11 10 10 11 10 10 9 8 7 6 5 4 4 4 4 3 2 1 0 1 1 2 1 1 1 1 2 2 1 1
Wind_Direction
240 239 229 247 222 70 66 65 65 64 63 60 60 67 62 61 77 95 113 110 111 113 115 110 104 102 99 98 97 97 96 93 92 91 90 90 91 93 95 96 96 97 99 100 100 99 99 99 101
262 252 241 245 74 74 69 69 69 70 72 71 69 74 74 75 89 102 110 114 116 118 116 110 109 104 100 99 99 98 98 96 93 91 90 92 94 95 97 100 101 101 102 103 102 102 102 102 104
259 256 260 98 72 73 75 75 79 82 83 83 73 66 73 88 97 108 117 119 114 109 109 111 111 108 104 101 98 98 98 97 96 94 93 94 97 97 99 102 104 105 105 106 106 105 105 104 106
264 253 182 79 78 78 81 85 88 87 83 87 87 79 74 89 104 115 123 121 116 116 115 115 113 110 107 104 101 99 100 99 97 96 96 97 99 99 101 104 107 107 107 109 109 108 108 108 111
251 291 80 83 82 84 84 83 81 82 83 84 88 92 90 97 109 121 124 121 119 116 117 120 118 114 111 107 105 103 102 102 101 100 100 100 100 103 105 107 109 108 108 109 110 112 112 113 117
271 237 84 86 87 85 86 87 87 90 95 102 104 103 103 112 120 124 120 119 120 119 119 123 123 120 116 112 108 107 108 106 106 106 107 107 106 105 106 107 110 109 109 110 114 115 116 119 124
272 41 80 87 88 85 81 85 86 88 89 98 112 113 121 123 124 119 117 118 119 121 126 133 132 128 124 120 118 115 114 113 113 115 116 114 113 113 113 111 112 112 113 115 119 121 123 127 136
346 63 90 91 90 89 86 80 82 85 84 96 117 119 131 132 130 120 117 111 112 119 128 134 137 139 139 132 130 128 126 124 125 128 129 128 129 128 128 123 118 118 119 123 126 128 132 139 153
21 38 78 86 93 97 97 94 94 91 81 70 77 116 132 138 133 129 123 119 120 119 124 133 133 144 142 137 139 142 139 140 144 145 149 153 150 141 143 126 128 129 132 135 138 142 148 157 174
78 75 78 84 92 100 100 106 112 108 107 101 99 113 130 139 141 142 139 137 134 129 124 127 125 134 134 130 140 152 147 147 157 144 159 171 155 144 135 138 145 148 151 154 161 165 171 183 183
70 82 82 84 84 89 100 104 104 111 120 128 130 135 143 146 152 149 147 144 138 133 128 130 121 118 126 127 145 145 145 143 151 147 164 162 157 146 141 152 158 167 170 176 169 179 197 204 188
73 85 83 84 88 87 82 89 90 91 107 128 136 143 147 155 157 151 147 141 138 137 137 130 120 112 106 116 132 153 151 148 150 159 184 159 161 146 146 159 167 173 175 175 173 184 188 180 162
71 88 94 105 104 87 77 82 100 108 116 126 136 146 152 159 153 142 134 133 137 142 139 126 121 117 109 102 150 140 139 144 151 157 165 155 143 122 129 145 164 177 160 163 170 164 151 147 148
353 34 133 123 106 91 70 46 104 126 129 133 142 149 156 156 149 139 139 141 143 145 141 134 138 138 138 148 148 134 153 143 147 149 145 147 131 118 120 131 159 167 161 148 158 168 150 175 188
259 247 217 156 125 114 94 346 185 140 139 143 149 155 155 155 150 150 152 151 151 150 145 146 155 151 161 172 188 173 160 145 138 124 132 142 132 122 133 120 144 159 125 117 153 171 169 193 199
247 234 231 181 128 133 136 198 199 163 154 152 156 158 156 156 157 154 155 156 155 152 152 167 173 158 166 180 201 180 155 142 130 126 130 153 142 154 158 155 168 155 160 159 176 222 202 205 226
255 234 222 182 155 161 170 171 182 168 156 158 162 159 158 161 162 156 159 160 156 153 158 170 174 160 169 176 191 189 146 132 139 144 154 170 175 178 192 185 155 171 189 190 210 191 217 226 228
283 259 216 197 160 185 182 175 165 172 163 167 168 164 163 168 168 159 160 160 154 156 161 167 176 165 166 165 175 205 189 173 181 170 170 175 191 189 202 200 178 196 202 209 209 205 224 239 239
284 291 278 207 137 216 241 205 176 168 171 171 170 166 166 169 166 159 163 162 159 161 165 170 175 166 170 172 181 191 199 193 195 189 186 182 196 197 203 227 183 201 208 208 211 207 225 226 223
271 272 274 253 165 255 255 264 218 182 182 176 169 170 172 169 164 160 165 166 165 167 169 173 178 172 181 182 184 197 199 200 197 189 169 181 189 199 204 200 211 203 212 219 231 223 231 244 229
260 263 275 283 264 246 252 257 200 250 213 193 178 175 172 172 168 165 169 172 172 172 176 181 179 176 184 183 180 193 185 218 199 176 179 188 192 206 214 195 209 209 199 206 229 227 224 235 241
254 263 274 276 273 272 264 261 202 219 215 208 186 170 170 168 165 166 172 176 178 175 177 176 172 175 178 181 192 195 194 202 210 192 180 184 198 205 201 201 218 218 229 212 227 213 228 231 249
262 279 281 272 271 274 269 269 220 195 204 203 184 177 169 163 164 165 170 174 173 172 171 169 166 172 173 183 194 197 207 206 217 199 174 188 193 201 206 194 208 220 238 228 237 233 234 239 246
262 268 270 265 263 260 255 256 207 176 178 179 169 161 154 153 152 154 161 162 166 166 163 161 164 171 174 185 196 199 202 198 208 203 190 199 195 202 204 201 202 214 235 235 233 229 233 243 259
239 247 249 248 244 254 259 251 185 173 170 151 151 153 152 152 151 154 158 160 163 164 163 162 165 172 179 187 195 194 198 194 200 214 212 211 210 198 200 209 193 218 233 233 228 223 240 237 247
231 238 244 257 269 285 284 271 157 142 134 140 150 149 151 155 156 158 160 160 161 165 166 165 166 172 179 183 188 189 188 193 201 205 215 216 228 199 181 192 195 208 228 241 228 233 236 238 247
239 240 250 256 263 267 261 266 181 142 148 153 151 151 153 156 157 159 160 160 161 165 166 165 163 172 178 178 177 178 179 186 188 190 206 218 227 220 176 186 194 215 228 245 238 239 245 243 249
242 248 256 257 267 273 253 249 215 152 163 155 153 156 155 156 156 160 159 160 163 164 162 162 163 172 172 171 177 179 179 180 184 191 196 218 220 248 166 196 215 221 226 234 240 245 245 241 247
229 243 255 270 266 267 267 273 178 158 174 161 153 153 158 164 164 160 158 159 161 160 161 162 161 165 169 171 168 169 167 170 169 172 171 168 141 181 190 230 243 238 243 239 237 245 252 247 267
241 236 240 249 261 271 274 261 214 177 158 157 154 157 155 159 160 156 155 153 158 161 160 158 160 166 166 164 158 158 155 156 163 161 148 143 159 202 223 228 246 253 252 256 271 284 274 240 266
Height
1482 1481 1481 1484 1481 1482 1489 1486 1485 1487 1489 1491 1492 1494 1499 1502 1509 1524 1528 1528 1530 1531 1532 1533 1534 1535 1536 1537 1538 1539 1540 1541 1541 1542 1543 1543 1544 1544 1545 1546 1546 1547 1548 1549 1550 1551 1552 1553 1554
1482 1483 1485 1483 1482 1496 1497 1489 1490 1491 1493 1494 1496 1500 1504 1510 1516 1523 1527 1530 1532 1533 1534 1535 1536 1537 1538 1539 1540 1541 1542 1543 1544 1545 1545 1546 1546 1547 1548 1548 1549 1550 1551 1552 1553 1554 1555 1556 1557
1482 1483 1484 1476 1483 1495 1498 1490 1491 1492 1495 1497 1502 1506 1510 1516 1520 1525 1529 1532 1534 1535 1535 1537 1538 1539 1540 1541 1543 1544 1545 1545 1546 1547 1548 1548 1549 1550 1550 1551 1552 1553 1553 1554 1555 1556 1557 1558 1560
1484 1483 1479 1478 1488 1488 1489 1489 1490 1493 1496 1499 1504 1511 1517 1520 1524 1528 1531 1533 1535 1536 1537 1539 1540 1541 1542 1543 1545 1546 1547 1547 1548 1549 1550 1551 1551 1552 1553 1554 1554 1555 1556 1557 1558 1558 1560 1561 1562
1486 1482 1479 1485 1488 1486 1486 1489 1492 1494 1498 1503 1508 1516 1521 1525 1527 1530 1533 1535 1537 1538 1539 1540 1542 1543 1544 1546 1547 1548 1549 1550 1551 1551 1552 1553 1553 1554 1555 1556 1557 1557 1558 1559 1560 1561 1562 1563 1564
1485 1479 1486 1492 1490 1486 1487 1490 1493 1497 1501 1505 1511 1518 1525 1529 1530 1532 1535 1537 1538 1540 1540 1542 1544 1545 1546 1547 1549 1550 1551 1552 1553 1553 1554 1555 1556 1556 1557 1558 1559 1560 1561 1561 1562 1563 1564 1565 1566
1483 1479 1486 1489 1490 1490 1489 1491 1494 1498 1501 1505 1510 1517 1525 1530 1532 1534 1537 1539 1540 1542 1542 1544 1545 1547 1548 1549 1550 1551 1553 1553 1554 1555 1556 1557 1557 1558 1559 1560 1561 1562 1563 1563 1564 1565 1566 1568 1569
1479 1480 1487 1487 1492 1493 1491 1494 1497 1501 1504 1507 1509 1516 1524 1530 1533 1535 1538 1540 1542 1543 1545 1546 1547 1548 1549 1551 1552 1553 1554 1555 1556 1557 1558 1559 1559 1560 1561 1562 1563 1564 1565 1566 1567 1568 1569 1570 1571
1481 1484 1489 1487 1490 1492 1492 1496 1499 1502 1505 1508 1510 1515 1523 1529 1533 1536 1539 1542 1544 1545 1547 1548 1549 1551 1552 1553 1553 1555 1556 1557 1558 1559 1560 1560 1561 1562 1563 1564 1565 1565 1567 1568 1569 1570 1571 1572 1573
1482 1488 1486 1481 1484 1488 1492 1495 1498 1502 1507 1512 1516 1521 1525 1530 1533 1536 1539 1542 1544 1546 1548 1550 1551 1553 1554 1555 1555 1556 1558 1558 1559 1560 1561 1562 1563 1564 1564 1565 1566 1567 1568 1569 1571 1572 1572 1573 1575
1480 1483 1480 1481 1485 1489 1492 1494 1496 1499 1505 1511 1517 1522 1526 1530 1533 1536 1539 1542 1544 1547 1549 1551 1552 1554 1555 1556 1557 1558 1559 1560 1561 1562 1562 1563 1564 1565 1565 1566 1567 1568 1569 1570 1572 1573 1574 1575 1576
1480 1480 1482 1484 1488 1491 1493 1495 1498 1500 1506 1511 1516 1521 1526 1530 1533 1536 1539 1542 1544 1547 1549 1551 1552 1553 1555 1556 1558 1559 1560 1560 1561 1562 1564 1565 1565 1566 1566 1566 1568 1569 1570 1571 1573 1574 1575 1576 1577
1480 1482 1483 1485 1488 1491 1494 1497 1501 1504 1508 1513 1517 1522 1526 1529 1533 1536 1539 1541 1544 1547 1549 1550 1551 1553 1554 1556 1558 1559 1560 1561 1561 1562 1564 1565 1566 1567 1567 1567 1569 1570 1571 1572 1573 1574 1575 1577 1578
1482 1482 1483 1485 1488 1493 1499 1502 1503 1506 1509 1514 1518 1522 1525 1529 1532 1535 1538 1541 1543 1546 1548 1549 1550 1552 1553 1555 1557 1558 1560 1560 1562 1562 1563 1565 1566 1567 1567 1568 1569 1570 1571 1573 1573 1574 1575 1576 1577
1484 1483 1483 1484 1487 1493 1500 1508 1504 1506 1508 1513 1517 1521 1525 1528 1531 1535 1537 1540 1542 1544 1546 1548 1550 1551 1553 1555 1557 1559 1560 1561 1562 1562 1563 1564 1566 1566 1567 1568 1569 1570 1571 1572 1573 1574 1575 1576 1577
1482 1486 1493 1485 1486 1492 1500 1514 1503 1505 1507 1511 1515 1520 1524 1527 1530 1533 1537 1539 1541 1543 1545 1547 1549 1550 1552 1554 1556 1558 1559 1560 1561 1562 1563 1564 1565 1566 1567 1568 1569 1570 1571 1571 1572 1573 1574 1575 1576
1486 1493 1494 1487 1484 1487 1493 1504 1501 1502 1504 1509 1513 1518 1522 1527 1530 1533 1536 1538 1540 1542 1544 1546 1548 1549 1551 1553 1555 1557 1558 1560 1560 1561 1562 1563 1564 1565 1566 1567 1568 1569 1570 1571 1572 1573 1573 1574 1575
1496 1491 1490 1487 1482 1484 1490 1495 1494 1497 1501 1506 1510 1515 1520 1524 1529 1532 1534 1537 1539 1541 1542 1545 1547 1548 1550 1552 1554 1555 1557 1558 1559 1560 1561 1562 1563 1564 1565 1566 1567 1568 1569 1570 1570 1571 1572 1573 1573
1486 1487 1488 1482 1478 1484 1490 1492 1491 1494 1498 1503 1508 1512 1518 1522 1526 1530 1533 1536 1538 1539 1541 1543 1545 1547 1548 1550 1552 1554 1556 1557 1558 1559 1560 1560 1562 1563 1564 1565 1566 1567 1567 1568 1569 1569 1570 1571 1572
1486 1490 1488 1481 1477 1484 1490 1492 1490 1492 1496 1499 1504 1510 1515 1520 1524 1528 1531 1534 1536 1538 1540 1542 1543 1545 1547 1549 1551 1552 1555 1556 1557 1558 1559 1559 1560 1561 1562 1563 1564 1565 1565 1566 1567 1568 1568 1569 1570
1488 1489 1487 1486 1481 1482 1490 1498 1495 1494 1497 1499 1501 1506 1511 1516 1521 1525 1529 1532 1535 1536 1538 1540 1542 1544 1546 1548 1550 1552 1553 1555 1556 1556 1557 1558 1559 1560 1560 1561 1562 1563 1563 1564 1565 1565 1566 1567 1568
1493 1481 1482 1484 1491 1495 1493 1512 1502 1497 1497 1498 1500 1504 1508 1513 1518 1523 1527 1530 1533 1535 1537 1539 1540 1542 1544 1546 1548 1550 1551 1553 1554 1555 1556 1556 1557 1558 1559 1559 1560 1561 1562 1562 1563 1563 1564 1565 1565
1485 1479 1481 1484 1490 1498 1496 1506 1508 1496 1501 1496 1498 1502 1506 1511 1516 1521 1524 1528 1531 1534 1536 1537 1539 1541 1543 1545 1546 1548 1550 1551 1552 1553 1554 1555 1556 1556 1557 1557 1558 1559 1560 1560 1560 1561 1561 1562 1562
1481 1483 1485 1486 1491 1509 1497 1502 1508 1495 1494 1491 1494 1499 1505 1510 1515 1519 1523 1527 1530 1533 1535 1536 1537 1539 1541 1543 1545 1546 1548 1549 1550 1551 1553 1553 1554 1554 1555 1556 1556 1557 1557 1558 1558 1559 1559 1559 1560
1484 1496 1511 1514 1513 1511 1490 1494 1497 1485 1482 1485 1491 1497 1503 1508 1513 1518 1522 1525 1528 1531 1533 1534 1536 1538 1540 1541 1543 1544 1546 1547 1549 1549 1551 1551 1552 1553 1553 1554 1554 1554 1555 1556 1556 1556 1556 1556 1557
1486 1491 1513 1525 1520 1510 1497 1498 1486 1477 1481 1485 1490 1496 1502 1507 1512 1516 1520 1524 1527 1529 1531 1533 1534 1536 1537 1539 1541 1542 1544 1545 1547 1548 1549 1550 1551 1551 1552 1552 1552 1552 1553 1553 1553 1553 1553 1554 1554
1486 1488 1483 1497 1503 1512 1507 1496 1482 1476 1480 1484 1489 1495 1500 1505 1510 1515 1518 1522 1525 1527 1529 1531 1532 1534 1536 1537 1539 1540 1542 1543 1544 1546 1547 1548 1549 1550 1550 1550 1550 1550 1550 1551 1551 1551 1551 1551 1551
1478 1480 1486 1495 1513 1520 1511 1504 1494 1487 1484 1483 1487 1493 1499 1504 1509 1513 1517 1520 1523 1525 1527 1529 1531 1532 1534 1535 1537 1538 1540 1541 1542 1544 1545 1546 1547 1548 1548 1548 1548 1548 1548 1548 1548 1548 1548 1548 1548
1482 1484 1486 1488 1493 1511 1520 1512 1480 1482 1481 1483 1487 1492 1498 1503 1507 1510 1515 1518 1521 1523 1526 1527 1529 1530 1532 1534 1535 1537 1538 1539 1541 1542 1543 1544 1545 1546 1546 1546 1546 1546 1546 1545 1545 1545 1545 1545 1545
1474 1479 1483 1499 1500 1498 1506 1505 1478 1476 1478 1481 1487 1492 1497 1502 1505 1509 1514 1517 1520 1522 1524 1526 1527 1529 1530 1532 1534 1536 1537 1538 1539 1540 1542 1543 1543 1544 1544 1543 1544 1543 1543 1543 1542 1542 1542 1542 1542